Change the Weather History Date:

Thursday, November 8, 2012

  Actual Average Record
Temperature  
Mean Temperature 47 °F -  
Max Temperature 50 °F 46 °F 57 °F (1998)
Min Temperature 44 °F 35 °F 32 °F (1996)
Degree Days  
Heating Degree Days 18    
Moisture  
Dew Point 41 °F    
Average Humidity 73    
Maximum Humidity 82    
Minimum Humidity 62    
Precipitation  
Precipitation 0.01 in 0.08 in - ()
Sea Level Pressure  
Sea Level Pressure 29.72 in    
Wind  
Wind Speed 14 mph ()    
Max Wind Speed 21 mph    
Max Gust Speed -    
Visibility 6.2 miles    
Events Rain    
Averages and records for this station are not official NWS values.
T = Trace of Precipitation, MM = Missing Value Source: Averaged Metar Reports

Daily Weather History Graph

Daily Weather History Graph

Search for Another Location

Airport or City:

Trip Planner

Search our weather history database for the weather conditions in past years. The results will help you decide how hot, cold, wet, or windy it might be!

Date:

Astronomy

Nov. 08, 2012 Rise Set
Actual Time 7:43 AM GMT 4:11 PM GMT
Civil Twilight 7:00 AM GMT 4:54 PM GMT
Nautical Twilight 6:13 AM GMT 5:41 PM GMT
Astronomical Twilight 5:28 AM GMT 6:26 PM GMT
Moon 12:09 AM GMT (11/8) 1:51 PM GMT (11/8)
Length of Visible Light 9h 53m
Length of Day
8h 27m
Waning Crescent, 35% of the Moon is Illuminated
Nov 8
Waning Crescent
Nov 13
New
Nov 20
First Quarter
Nov 28
Full
Dec 6
Last Quarter

Hourly Weather History & Observations

Time (GMT) Temp. Windchill Dew Point Humidity Pressure Visibility Wind Dir Wind Speed Gust Speed Precip Events Conditions
12:50 AM 48.2 °F - 41.0 °F 76% 29.65 in 6.2 mi WSW 17.3 mph - N/A   Mostly Cloudy
1:50 AM 50.0 °F - 41.0 °F 71% 29.62 in 6.2 mi WSW 18.4 mph - N/A Rain Light Rain Showers
2:50 AM 48 °F - 43 °F 76% 29.67 in 44 mi West 17.3 mph - - Rain Light Rain Showers
2:50 AM 48.2 °F - 42.8 °F 82% 29.65 in 6.2 mi West 17.3 mph - N/A Rain Light Rain Showers
3:50 AM 48.2 °F - 41.0 °F 76% 29.68 in - WSW 18.4 mph - N/A   Partly Cloudy
4:50 AM 48.2 °F - 41.0 °F 76% 29.68 in 6.2 mi WSW 19.6 mph - N/A   Scattered Clouds
5:50 AM 48 °F - 42 °F 71% 29.72 in 47 mi WSW 13.8 mph - -  
5:50 AM 48.2 °F - 41.0 °F 76% 29.71 in 6.2 mi WSW 13.8 mph - N/A   Mostly Cloudy
6:50 AM 48.2 °F - 42.8 °F 82% 29.71 in 6.2 mi WSW 19.6 mph - N/A   Mostly Cloudy
7:50 AM 48.2 °F - 42.8 °F 82% 29.74 in 6.2 mi West 18.4 mph - N/A   Mostly Cloudy
8:50 AM 48 °F - 42 °F 74% 29.78 in 44 mi West 20.7 mph - -   Partly Cloudy
8:50 AM 48.2 °F - 42.8 °F 82% 29.77 in 6.2 mi West 20.7 mph - N/A   Mostly Cloudy
9:50 AM 48.2 °F - 42.8 °F 82% 29.80 in 6.2 mi WSW 12.7 mph - N/A   Mostly Cloudy
10:50 AM 50.0 °F - 42.8 °F 76% 29.80 in - North - - N/A   Mostly Cloudy
11:50 AM 50 °F - 41 °F 62% 29.82 in 47 mi Calm Calm - -   Mostly Cloudy
11:50 AM 50.0 °F - 41.0 °F 71% 29.80 in - North - - N/A   Mostly Cloudy
12:50 PM 50.0 °F - 41.0 °F 71% 29.83 in - North - - N/A   Scattered Clouds
1:50 PM 50.0 °F - 39.2 °F 66% 29.80 in 6.2 mi WSW 13.8 mph - N/A   Scattered Clouds
2:50 PM 48 °F - 40 °F 64% 29.82 in 44 mi WSW 12.7 mph - -   Mostly Cloudy
2:50 PM 48.2 °F - 39.2 °F 71% 29.80 in 6.2 mi WSW 12.7 mph - N/A   Scattered Clouds
3:50 PM 48.2 °F - 39.2 °F 71% 29.80 in 6.2 mi WSW 12.7 mph - N/A   Mostly Cloudy
4:50 PM 46.4 °F 42.4 °F 37.4 °F 71% 29.77 in 6.2 mi SSW 8.1 mph - N/A   Mostly Cloudy
5:50 PM 45 °F - 37 °F 64% 29.75 in 40 mi SSW 8.1 mph - -   Partly Cloudy
5:50 PM 44.6 °F 40.2 °F 37.4 °F 76% 29.74 in 6.2 mi SSW 8.1 mph - N/A   Scattered Clouds
6:50 PM 46.4 °F 41.9 °F 37.4 °F 71% 29.71 in 6.2 mi SSW 9.2 mph - N/A   Mostly Cloudy
7:50 PM 46.4 °F 42.9 °F 39.2 °F 76% 29.68 in 6.2 mi SSW 6.9 mph - N/A Rain Rain
8:50 PM 47 °F - 39 °F 66% 29.68 in 31 mi SSW 10.4 mph - - Rain Light Rain
8:50 PM 46.4 °F 41.5 °F 39.2 °F 76% 29.65 in 6.2 mi SSW 10.4 mph - N/A Rain Light Rain
9:50 PM 48.2 °F - 39.2 °F 71% 29.62 in 6.2 mi South 12.7 mph - N/A   Mostly Cloudy
10:50 PM 48.2 °F - 41.0 °F 76% 29.56 in 6.2 mi SSE 9.2 mph - N/A   Mostly Cloudy
11:50 PM 49 °F - 40 °F 64% 29.55 in 44 mi SSW 15.0 mph - -   Overcast
11:50 PM 50.0 °F - 41.0 °F 71% 29.53 in 6.2 mi SSW 15.0 mph - N/A   Overcast